EW9060 Weather Reports


time (UTC)temp
F
wind
direction
speed
knots
gust
knots
rain 1hr
in
rain 24hr
in
rain mn
in
humidity
%
barometer
mb
20260503001555 72 146 4.3 9.6 0.00 0.00 0.00 52 1010.4
20260503000108 74 259 0.9 6.1 0.00 0.00 0.00 52 1010.5
20260502234552 74 195 2.6 6.1 0.00 0.00 0.00 52 1010.6
20260502233051 74 224 2.6 8.7 0.00 0.00 0.00 52 1010.7
20260502231613 75 208 2.6 7.0 0.00 0.00 0.00 50 1010.9
20260502230047 74 158 1.7 7.8 0.00 0.00 0.00 53 1011.1
20260502224555 74 190 6.1 10.4 0.00 0.00 0.00 52 1011.3
20260502223043 74 148 2.6 7.0 0.00 0.00 0.00 52 1011.4
20260502221540 73 146 1.7 8.7 0.00 0.00 0.00 53 1011.7
20260502220046 72 192 2.6 8.7 0.00 0.00 0.00 53 1012.0
20260502214536 72 150 1.7 9.6 0.00 0.00 0.00 55 1012.2
20260502213035 72 215 1.7 8.7 0.00 0.00 0.00 56 1012.3
20260502211535 71 194 1.7 7.0 0.00 0.00 0.00 58 1012.5
20260502210033 72 279 1.7 8.7 0.00 0.00 0.00 56 1012.7
20260502204532 71 220 2.6 7.8 0.00 0.00 0.00 57 1012.8
20260502203031 71 176 3.5 12.2 0.00 0.00 0.00 57 1012.9
20260502201531 70 177 1.7 7.8 0.00 0.00 0.00 61 1013.0
20260502200023 68 198 3.5 9.6 0.00 0.00 0.00 63 1013.1
20260502194519 66 212 4.3 10.4 0.00 0.00 0.00 66 1013.2
20260502193018 65 250 2.6 8.7 0.00 0.00 0.00 67 1013.4
20260502191515 65 168 3.5 12.2 0.00 0.00 0.00 68 1013.4
20260502190012 63 148 3.5 10.4 0.00 0.00 0.00 70 1013.5
20260502184509 62 157 3.5 8.7 0.00 0.00 0.00 71 1013.5
20260502183006 62 169 1.7 9.6 0.00 0.00 0.00 73 1013.4
20260502181507 61 135 3.5 9.6 0.00 0.00 0.00 74 1013.5
20260502163055 59 199 2.6 8.7 0.00 0.00 0.00 77 1013.2
20260502161621 59 178 5.2 13.9 0.00 0.00 0.00 75 1013.2
20260502160116 59 140 5.2 12.2 0.00 0.00 0.00 75 1013.0
20260502151551 59 244 2.6 7.8 0.00 0.00 0.00 75 1012.8
20260502123106 55 166 2.6 7.0 0.00 0.00 0.00 81 1011.5
20260502121529 54 142 1.7 4.3 0.00 0.00 0.00 81 1011.4
20260502114526 55 159 4.3 8.7 0.00 0.00 0.00 80 1011.4
20260502113025 55 150 2.6 6.1 0.00 0.00 0.00 80 1011.5
20260502111529 55 129 1.7 6.1 0.00 0.00 0.00 79 1011.5
20260502110021 56 120 2.6 7.0 0.00 0.00 0.00 78 1011.5
20260502104519 56 146 1.7 7.8 0.00 0.00 0.00 78 1011.5
20260502103018 56 152 1.7 7.8 0.00 0.00 0.00 77 1011.7
20260502101515 56 177 2.6 5.2 0.00 0.00 0.00 77 1011.8
20260502091508 57 135 1.7 6.1 0.00 0.00 0.00 77 1011.9
20260502070046 61 116 3.5 7.0 0.00 0.00 0.00 73 1012.1
20260502064547 62 128 3.5 7.8 0.00 0.00 0.00 73 1012.0
20260502063054 62 144 1.7 6.1 0.00 0.00 0.00 73 1011.8
20260502061542 62 123 2.6 7.8 0.00 0.00 0.00 72 1011.9
20260502060040 63 126 1.7 7.8 0.00 0.00 0.00 72 1012.0
20260502054538 64 132 2.6 6.1 0.00 0.00 0.00 72 1011.9
20260502053038 65 182 2.6 7.8 0.00 0.00 0.00 70 1012.0
20260502051534 65 115 1.7 6.1 0.00 0.00 0.00 70 1011.9
20260502050034 66 158 0.9 7.8 0.00 0.00 0.00 69 1011.9
20260502044523 67 150 2.6 7.0 0.00 0.00 0.00 67 1011.8
20260502043020 68 197 1.7 8.7 0.00 0.00 0.00 66 1011.7
20260502041524 69 182 2.6 7.0 0.00 0.00 0.00 64 1011.5
20260502040014 71 171 0.9 8.7 0.00 0.00 0.00 63 1011.5
20260502034512 72 141 2.6 8.7 0.00 0.00 0.00 61 1011.1
20260502033015 73 217 1.7 7.8 0.00 0.00 0.00 60 1011.0
20260502031503 74 153 1.7 5.2 0.00 0.00 0.00 60 1010.8
20260502030059 75 161 2.6 7.0 0.00 0.00 0.00 57 1010.7
20260502024610 77 74 1.7 5.2 0.00 0.00 0.00 52 1010.8
20260502023052 78 168 2.6 7.0 0.00 0.00 0.00 49 1010.7
20260502021553 79 164 0.9 6.1 0.00 0.00 0.00 49 1010.6
20260502020047 80 184 0.9 5.2 0.00 0.00 0.00 49 1010.6
20260502014543 81 280 0.9 5.2 0.00 0.00 0.00 46 1010.6
20260502013039 83 172 0.9 4.3 0.00 0.00 0.00 44 1010.6
20260502011539 83 159 1.7 6.1 0.00 0.00 0.00 42 1010.6
20260502010048 84 180 0.9 3.5 0.00 0.00 0.00 42 1010.8
20260502004552 84 162 0.0 5.2 0.00 0.00 0.00 42 1010.9
20260502003031 85 130 2.6 8.7 0.00 0.00 0.00 40 1011.0